Location: ???
(35.5616°N, 139.7977°E)
Time: 20:38:22
(UTC+00:00)

USA 267 - Pass Details

Date: 17 November 2025
Orbit: 1100 x 1108 km, 123.0° (Epoch: 21 November)

Event Time Altitude Azimuth Distance (km) Brightness Sun altitude
Rises 18:01:41 0° 47° (NE) 3,918 6.7 -40.0°
Reaches altitude 10° 18:04:13 10° 51° (NE) 2,957 6.0 -39.5°
Enters shadow 18:09:13 49° 85° (E) 1,395 4.0 -38.5°
